Weather History for KONT - November, 2012

Change the Weather History Date:

Sunday, November 4, 2012

  Actual Average Record
Temperature  
Mean Temperature 72 °F 63 °F  
Max Temperature 93 °F 76 °F 96 °F (2010)
Min Temperature 51 °F 50 °F 45 °F (2002)
Degree Days  
Heating Degree Days 0 3  
Month to date heating degree days 8 12  
Since 1 July heating degree days 18 57  
Cooling Degree Days 7 2  
Month to date cooling degree days 8 8  
Year to date cooling degree days 2138 1691  
Growing Degree Days 23 (Base 50)    
Moisture  
Dew Point 30 °F    
Average Humidity 35    
Maximum Humidity 64    
Minimum Humidity 6    
Precipitation  
Precipitation 0.00 in 0.05 in 0.30 in (2011)
Month to date precipitation 0.00 0.20  
Year to date precipitation 5.71 11.71  
Since 1 July precipitation 0.22 1.33  
Snow  
Snow 0.00 in - - ()
Month to date snowfall 0.0  
Year to date snowfall 0.0  
Since 1 July snowfall 0.0  
Snow Depth 0.00 in    
Sea Level Pressure  
Sea Level Pressure 30.03 in    
Wind  
Wind Speed 4 mph (NE)    
Max Wind Speed 30 mph    
Max Gust Speed 22 mph    
Visibility 10 miles    
Events      
T = Trace of Precipitation, MM = Missing Value Source: NWS Daily Summary

Daily Weather History Graph

Daily Weather History Graph

Search for Another Location

Airport or City:

Trip Planner

Search our weather history database for the weather conditions in past years. The results will help you decide how hot, cold, wet, or windy it might be!

Date:

Astronomy

Nov. 04, 2012 Rise Set
Actual Time 6:13 AM PST 4:54 PM PST
Civil Twilight 5:47 AM PST 5:20 PM PST
Nautical Twilight 5:17 AM PST 5:50 PM PST
Astronomical Twilight 4:48 AM PST 6:19 PM PST
Moon 9:38 PM PST 10:57 AM PST
Length of Visible Light 11h 33m
Length of Day
10h 41m
Waning Gibbous, 71% of the Moon is Illuminated
Nov 4
Waning Gibbous
Nov 6
Last Quarter
Nov 13
New
Nov 20
First Quarter
Nov 28
Full

Hourly Weather History & Observations

Time (PST) Temp. Dew Point Humidity Pressure Visibility Wind Dir Wind Speed Gust Speed Precip Events Conditions
12:53 AM 57.0 °F 43.0 °F 59% 30.04 in 9.0 mi Calm Calm - N/A   Clear
1:53 AM 55.0 °F 42.1 °F 62% 30.04 in 10.0 mi Calm Calm - N/A   Clear
1:53 AM 57.0 °F 42.1 °F 57% 30.03 in 10.0 mi NNE 4.6 mph - N/A   Clear
2:53 AM 55.0 °F 41.0 °F 59% 30.04 in 10.0 mi North 3.5 mph - N/A   Clear
3:53 AM 55.0 °F 41.0 °F 59% 30.03 in 10.0 mi Calm Calm - N/A   Clear
4:53 AM 53.1 °F 41.0 °F 64% 30.05 in 10.0 mi Calm Calm - N/A   Clear
5:53 AM 53.1 °F 39.9 °F 61% 30.06 in 10.0 mi Calm Calm - N/A   Clear
6:53 AM 55.9 °F 41.0 °F 57% 30.08 in 10.0 mi NE 4.6 mph - N/A   Clear
7:53 AM 64.0 °F 39.9 °F 41% 30.08 in 10.0 mi Calm Calm - N/A   Clear
8:53 AM 68.0 °F 39.9 °F 36% 30.08 in 10.0 mi Calm Calm - N/A   Clear
9:53 AM 75.9 °F 32.0 °F 20% 30.08 in 10.0 mi SSW 5.8 mph - N/A   Clear
10:53 AM 84.0 °F 36.0 °F 18% 30.04 in 10.0 mi SW 9.2 mph - N/A   Clear
11:53 AM 90.0 °F 25.0 °F 10% 30.01 in 10.0 mi Variable 4.6 mph - N/A   Clear
12:53 PM 91.9 °F 18.0 °F 7% 29.99 in 10.0 mi NE 9.2 mph - N/A   Clear
1:53 PM 93.0 °F 18.0 °F 6% 29.98 in 10.0 mi ENE 10.4 mph 20.7 mph N/A   Clear
2:53 PM 91.9 °F 18.0 °F 7% 29.98 in 10.0 mi NNE 13.8 mph 21.9 mph N/A   Clear
3:53 PM 90.0 °F 19.0 °F 7% 29.98 in 10.0 mi NNE 11.5 mph - N/A   Clear
4:53 PM 86.0 °F 18.0 °F 8% 29.99 in 10.0 mi NE 11.5 mph - N/A   Clear
5:53 PM 84.0 °F 19.0 °F 9% 30.02 in 10.0 mi NNE 15.0 mph 19.6 mph N/A   Clear
6:53 PM 82.0 °F 19.0 °F 10% 30.03 in 10.0 mi NNE 10.4 mph - N/A   Clear
7:53 PM 81.0 °F 19.0 °F 10% 30.03 in 10.0 mi NE 6.9 mph - N/A   Clear
8:53 PM 73.0 °F 30.9 °F 21% 30.04 in 10.0 mi Calm Calm - N/A   Clear
9:53 PM 82.0 °F 19.0 °F 10% 30.03 in 10.0 mi ENE 10.4 mph - N/A   Clear
10:53 PM 73.0 °F 26.1 °F 17% 30.03 in 10.0 mi NNW 3.5 mph - N/A   Clear